TimeCST,TemperatureF,Dew PointF,Humidity,Sea Level PressureIn,VisibilityMPH,Wind Direction,Wind SpeedMPH,Gust SpeedMPH,PrecipitationIn,Events,Conditions,WindDirDegrees,DateUTC
12:15 AM,21.2,17.6,86,30.16,7.0,NNW,17.3,26.5,N/A,,Overcast,340,2013-11-21 06:15:00
12:35 AM,19.4,15.8,86,30.17,10.0,NNW,20.7,29.9,N/A,,Overcast,340,2013-11-21 06:35:00
12:55 AM,19.4,14.0,80,30.18,10.0,NNW,23.0,29.9,N/A,,Overcast,340,2013-11-21 06:55:00
1:15 AM,19.4,14.0,80,30.19,10.0,NNW,19.6,25.3,N/A,,Overcast,330,2013-11-21 07:15:00
1:35 AM,19.4,14.0,80,30.19,10.0,NNW,19.6,31.1,N/A,,Overcast,330,2013-11-21 07:35:00
1:55 AM,19.4,12.2,74,30.20,10.0,NNW,25.3,31.1,N/A,,Overcast,330,2013-11-21 07:55:00
2:15 AM,19.4,14.0,80,30.23,10.0,NNW,25.3,33.4,N/A,,Overcast,340,2013-11-21 08:15:00
2:35 AM,19.4,12.2,74,30.24,10.0,NNW,27.6,34.5,N/A,,Overcast,340,2013-11-21 08:35:00
2:55 AM,19.4,12.2,74,30.25,10.0,NNW,21.9,27.6,N/A,,Overcast,340,2013-11-21 08:55:00
3:15 AM,19.4,12.2,74,30.26,10.0,North,19.6,28.8,N/A,,Overcast,350,2013-11-21 09:15:00
3:35 AM,17.6,12.2,79,30.27,10.0,NNW,19.6,26.5,N/A,,Overcast,340,2013-11-21 09:35:00
3:55 AM,17.6,12.2,79,30.28,10.0,NNW,16.1,24.2,N/A,,Overcast,330,2013-11-21 09:55:00
4:15 AM,17.6,12.2,79,30.28,7.0,NNW,21.9,29.9,N/A,,Overcast,340,2013-11-21 10:15:00
4:35 AM,17.6,12.2,79,30.29,7.0,NNW,20.7,27.6,N/A,,Overcast,340,2013-11-21 10:35:00
4:55 AM,17.6,12.2,79,30.31,10.0,NNW,23.0,29.9,N/A,,Overcast,340,2013-11-21 10:55:00
5:15 AM,17.6,12.2,79,30.31,7.0,NNW,27.6,33.4,N/A,,Overcast,340,2013-11-21 11:15:00
5:35 AM,17.6,10.4,73,30.33,10.0,North,19.6,31.1,N/A,,Overcast,350,2013-11-21 11:35:00
5:55 AM,17.6,10.4,73,30.34,10.0,NNW,18.4,28.8,N/A,,Overcast,340,2013-11-21 11:55:00
6:15 AM,17.6,10.4,73,30.35,10.0,NNW,20.7,29.9,N/A,,Overcast,340,2013-11-21 12:15:00
6:35 AM,17.6,10.4,73,30.37,10.0,NNW,17.3,27.6,N/A,,Overcast,330,2013-11-21 12:35:00
6:55 AM,17.6,10.4,73,30.37,10.0,NNW,21.9,25.3,N/A,,Overcast,340,2013-11-21 12:55:00
7:15 AM,17.6,10.4,73,30.40,10.0,NNW,16.1,27.6,N/A,,Overcast,340,2013-11-21 13:15:00
7:35 AM,17.6,10.4,73,30.39,10.0,NNW,20.7,26.5,N/A,,Overcast,340,2013-11-21 13:35:00
7:55 AM,17.6,10.4,73,30.41,10.0,NNW,21.9,31.1,N/A,,Overcast,340,2013-11-21 13:55:00
8:15 AM,17.6,10.4,73,30.44,10.0,North,18.4,31.1,N/A,,Overcast,350,2013-11-21 14:15:00
8:35 AM,17.6,10.4,73,30.44,10.0,North,17.3,27.6,N/A,,Overcast,350,2013-11-21 14:35:00
8:55 AM,17.6,10.4,73,30.46,10.0,North,20.7,28.8,N/A,,Overcast,350,2013-11-21 14:55:00
9:15 AM,17.6,10.4,73,30.47,10.0,NNW,19.6,-,N/A,,Overcast,340,2013-11-21 15:15:00
9:35 AM,17.6,8.6,68,30.47,10.0,North,18.4,26.5,N/A,,Overcast,350,2013-11-21 15:35:00
9:55 AM,17.6,8.6,68,30.48,10.0,North,19.6,25.3,N/A,,Overcast,350,2013-11-21 15:55:00
10:15 AM,17.6,10.4,73,30.49,10.0,North,18.4,26.5,N/A,,Mostly Cloudy,350,2013-11-21 16:15:00
10:35 AM,17.6,8.6,68,30.48,10.0,North,19.6,26.5,N/A,,Overcast,350,2013-11-21 16:35:00
10:55 AM,17.6,8.6,68,30.49,10.0,North,20.7,27.6,N/A,,Mostly Cloudy,350,2013-11-21 16:55:00
11:15 AM,17.6,8.6,68,30.49,10.0,NNW,21.9,26.5,N/A,,Mostly Cloudy,340,2013-11-21 17:15:00
11:35 AM,17.6,8.6,68,30.50,10.0,NNW,20.7,27.6,N/A,,Mostly Cloudy,340,2013-11-21 17:35:00
11:55 AM,17.6,8.6,68,30.50,10.0,NNW,16.1,25.3,N/A,,Mostly Cloudy,330,2013-11-21 17:55:00
12:15 PM,17.6,8.6,68,30.50,10.0,NNW,16.1,25.3,N/A,,Scattered Clouds,340,2013-11-21 18:15:00
12:35 PM,17.6,8.6,68,30.50,10.0,NNW,20.7,26.5,N/A,,Scattered Clouds,340,2013-11-21 18:35:00
12:55 PM,17.6,8.6,68,30.51,10.0,NNW,24.2,29.9,N/A,,Scattered Clouds,330,2013-11-21 18:55:00
1:15 PM,17.6,8.6,68,30.51,10.0,NNW,20.7,27.6,N/A,,Scattered Clouds,340,2013-11-21 19:15:00
1:35 PM,17.6,8.6,68,30.51,10.0,NNW,19.6,26.5,N/A,,Scattered Clouds,340,2013-11-21 19:35:00
1:55 PM,17.6,8.6,68,30.51,10.0,NNW,17.3,26.5,N/A,,Scattered Clouds,330,2013-11-21 19:55:00
2:15 PM,17.6,8.6,68,30.52,10.0,NNW,16.1,24.2,N/A,,Clear,340,2013-11-21 20:15:00
2:35 PM,17.6,8.6,68,30.52,10.0,North,18.4,27.6,N/A,,Clear,350,2013-11-21 20:35:00
2:55 PM,17.6,8.6,68,30.52,10.0,North,16.1,24.2,N/A,,Clear,350,2013-11-21 20:55:00
3:15 PM,17.6,8.6,68,30.53,10.0,North,18.4,24.2,N/A,,Clear,350,2013-11-21 21:15:00
3:35 PM,17.6,8.6,68,30.54,10.0,NNW,18.4,-,N/A,,Clear,340,2013-11-21 21:35:00
3:55 PM,15.8,6.8,68,30.55,10.0,NNW,12.7,20.7,N/A,,Clear,340,2013-11-21 21:55:00
4:15 PM,15.8,6.8,68,30.56,10.0,NNW,16.1,20.7,N/A,,Clear,330,2013-11-21 22:15:00
4:35 PM,15.8,6.8,68,30.57,10.0,NNW,12.7,-,N/A,,Scattered Clouds,340,2013-11-21 22:35:00
4:55 PM,14.0,5.0,67,30.58,10.0,NNW,12.7,23.0,N/A,,Clear,330,2013-11-21 22:55:00
5:15 PM,14.0,5.0,67,30.59,10.0,NNW,17.3,23.0,N/A,,Clear,340,2013-11-21 23:15:00
5:35 PM,14.0,5.0,67,30.59,10.0,NNW,17.3,23.0,N/A,,Scattered Clouds,340,2013-11-21 23:35:00
5:55 PM,14.0,5.0,67,30.60,10.0,NNW,13.8,-,N/A,,Clear,330,2013-11-21 23:55:00
6:15 PM,14.0,5.0,67,30.61,10.0,NNW,13.8,23.0,N/A,,Clear,340,2013-11-22 00:15:00
6:35 PM,14.0,5.0,67,30.61,10.0,NNW,10.4,23.0,N/A,,Clear,330,2013-11-22 00:35:00
6:55 PM,14.0,5.0,67,30.62,10.0,NNW,10.4,17.3,N/A,,Clear,330,2013-11-22 00:55:00
7:15 PM,14.0,5.0,67,30.62,10.0,NNW,12.7,19.6,N/A,,Clear,340,2013-11-22 01:15:00
7:35 PM,12.2,5.0,73,30.62,10.0,NNW,10.4,-,N/A,,Clear,330,2013-11-22 01:35:00
7:55 PM,12.2,5.0,73,30.62,10.0,NNW,9.2,-,N/A,,Clear,340,2013-11-22 01:55:00
8:15 PM,12.2,5.0,73,30.62,10.0,NNW,11.5,-,N/A,,Clear,330,2013-11-22 02:15:00
8:35 PM,12.2,5.0,73,30.63,10.0,NNW,8.1,-,N/A,,Clear,330,2013-11-22 02:35:00
8:55 PM,10.4,5.0,79,30.63,10.0,NNW,6.9,-,N/A,,Clear,330,2013-11-22 02:55:00
9:15 PM,10.4,5.0,79,30.63,10.0,NNW,5.8,-,N/A,,Clear,330,2013-11-22 03:15:00
9:35 PM,10.4,3.2,73,30.63,10.0,NW,4.6,-,N/A,,Clear,320,2013-11-22 03:35:00
9:55 PM,8.6,3.2,79,30.63,10.0,WNW,5.8,-,N/A,,Clear,300,2013-11-22 03:55:00
10:15 PM,8.6,3.2,79,30.63,10.0,WSW,4.6,-,N/A,,Clear,250,2013-11-22 04:15:00
10:35 PM,6.8,3.2,85,30.63,10.0,West,6.9,-,N/A,,Clear,270,2013-11-22 04:35:00
10:55 PM,6.8,1.4,79,30.63,10.0,WNW,5.8,-,N/A,,Clear,300,2013-11-22 04:55:00
11:15 PM,6.8,1.4,79,30.62,10.0,WNW,3.5,-,N/A,,Clear,290,2013-11-22 05:15:00
11:35 PM,6.8,1.4,79,30.62,10.0,WNW,3.5,-,N/A,,Clear,300,2013-11-22 05:35:00
11:55 PM,5.0,1.4,85,30.62,10.0,Calm,Calm,-,N/A,,Clear,0,2013-11-22 05:55:00